CW9454 Weather Reports


Display with metric or nautical units.
time (UTC)temp
F
wind
direction
speed
MPH
gust
MPH
rain 1hr
in
rain 24hr
in
rain mn
in
humidity
%
barometer
mb
20260502225026 60 264 0.0 5.0 0.00 0.00 0.00 42 1011.6
20260502224013 60 267 0.0 3.0 0.00 0.00 0.00 43 1011.7
20260502223036 60 309 1.0 6.0 0.00 0.00 0.00 41 1011.7
20260502222030 60 268 1.0 5.0 0.00 0.00 0.00 43 1011.6
20260502221017 60 317 1.0 5.0 0.00 0.00 0.00 43 1011.5
20260502220033 60 324 0.0 2.0 0.00 0.00 0.00 44 1011.4
20260502215018 60 317 0.0 3.0 0.00 0.00 0.00 43 1011.7
20260502214013 60 315 0.0 2.0 0.00 0.00 0.00 44 1011.4
20260502213026 60 323 0.0 3.0 0.00 0.00 0.00 44 1011.6
20260502212020 60 321 0.0 3.0 0.00 0.00 0.00 42 1011.5
20260502211013 60 329 0.0 5.0 0.00 0.00 0.00 42 1011.3
20260502210022 61 336 2.0 9.0 0.00 0.00 0.00 43 1011.3
20260502205033 61 292 0.0 2.0 0.00 0.00 0.00 44 1011.2
20260502204025 60 302 0.0 4.0 0.00 0.00 0.00 42 1011.3
20260502203020 61 326 0.0 3.0 0.00 0.00 0.00 44 1011.2
20260502202013 61 326 0.0 5.0 0.00 0.00 0.00 42 1011.2
20260502201027 61 313 1.0 5.0 0.00 0.00 0.00 43 1011.3
20260502200015 60 331 0.0 1.0 0.00 0.00 0.00 41 1011.4
20260502195030 61 331 0.0 5.0 0.00 0.00 0.00 45 1011.5
20260502194023 62 309 0.0 5.0 0.00 0.00 0.00 50 1011.7
20260502193033 60 327 0.0 3.0 0.00 0.00 0.00 45 1011.9
20260502192015 60 331 0.0 1.0 0.00 0.00 0.00 54 1012.0
20260502191057 60 331 0.0 1.0 0.00 0.00 0.00 50 1012.3
20260502190044 61 332 0.0 6.0 0.00 0.00 0.00 49 1012.5
20260502185018 62 318 0.0 3.0 0.00 0.00 0.00 44 1012.5
20260502184032 62 313 1.0 4.0 0.00 0.00 0.00 43 1012.7
20260502183025 62 355 0.0 1.0 0.00 0.00 0.00 44 1012.9
20260502182040 60 355 0.0 5.0 0.00 0.00 0.00 48 1013.1
20260502181053 59 308 0.0 4.0 0.00 0.00 0.00 47 1013.3
20260502164017 58 319 0.0 4.0 0.00 0.00 0.00 51 1013.7
20260502163030 59 313 0.0 2.0 0.00 0.00 0.00 52 1013.8
20260502162024 58 321 0.0 4.0 0.00 0.00 0.00 51 1013.9
20260502161019 57 316 0.0 3.0 0.00 0.00 0.00 52 1014.0
20260502152038 56 319 0.0 5.0 0.00 0.00 0.00 61 1014.5
20260502151023 56 312 0.0 4.0 0.00 0.00 0.00 58 1014.4
20260502123039 51 336 2.0 10.0 0.00 0.00 0.00 69 1014.2
20260502122025 51 283 1.0 6.0 0.00 0.00 0.00 69 1014.3
20260502121019 51 297 0.0 4.0 0.00 0.00 0.00 69 1014.2
20260502115019 50 307 1.0 5.0 0.00 0.00 0.00 69 1014.0
20260502114049 51 333 1.0 5.0 0.00 0.00 0.00 68 1014.2
20260502113052 51 332 2.0 6.0 0.00 0.00 0.00 68 1014.3
20260502112015 51 324 1.0 10.0 0.00 0.00 0.00 67 1014.1
20260502111029 51 333 1.0 6.0 0.00 0.00 0.00 68 1014.1
20260502110014 51 294 1.0 9.0 0.00 0.00 0.00 67 1014.0
20260502105028 51 338 1.0 14.0 0.00 0.00 0.00 67 1013.9
20260502104022 51 305 0.0 15.0 0.00 0.00 0.00 67 1013.9
20260502103036 51 274 1.0 8.0 0.00 0.00 0.00 67 1013.7
20260502102028 52 240 0.0 5.0 0.00 0.00 0.00 67 1013.6
20260502101022 52 295 0.0 6.0 0.00 0.00 0.00 66 1013.5
20260502091030 53 273 1.0 8.0 0.00 0.00 0.00 70 1012.6
20260502071028 55 311 0.0 2.0 0.00 0.00 0.00 70 1011.9
20260502070036 55 330 1.0 6.0 0.00 0.00 0.00 70 1011.9
20260502065037 55 335 1.0 10.0 0.00 0.00 0.00 72 1012.0
20260502064029 55 339 1.0 6.0 0.00 0.00 0.00 73 1012.0
20260502063014 55 324 0.0 3.0 0.00 0.00 0.00 75 1012.3
20260502062058 55 254 0.0 0.0 0.00 0.00 0.00 76 1012.4
20260502061051 55 254 0.0 1.0 0.00 0.00 0.00 76 1012.5
20260502060038 55 254 0.0 0.0 0.00 0.00 0.00 76 1012.4
20260502055030 55 254 0.0 4.0 0.00 0.00 0.00 76 1012.5
20260502054024 55 255 1.0 2.0 0.00 0.00 0.00 76 1012.6
20260502053018 56 256 0.0 3.0 0.00 0.00 0.00 75 1012.7
20260502052031 56 252 0.0 3.0 0.00 0.00 0.00 75 1012.7
20260502051017 56 251 1.0 4.0 0.00 0.00 0.00 75 1012.9
20260502050035 56 250 0.0 3.0 0.00 0.00 0.00 75 1012.9
20260502045018 56 252 1.0 5.0 0.00 0.00 0.00 76 1013.1
20260502044041 56 238 2.0 7.0 0.00 0.00 0.00 76 1013.0
20260502043029 57 247 1.0 4.0 0.00 0.00 0.00 77 1012.7
20260502042014 57 250 1.0 5.0 0.00 0.00 0.00 78 1012.6
20260502041027 58 254 1.0 4.0 0.00 0.00 0.00 78 1012.3
20260502040015 58 212 0.0 2.0 0.00 0.00 0.00 77 1012.2
20260502035028 57 190 0.0 4.0 0.00 0.00 0.00 77 1012.3
20260502034022 57 178 0.0 4.0 0.00 0.00 0.00 76 1012.1
20260502033016 57 184 1.0 5.0 0.00 0.00 0.00 76 1012.0
20260502032030 57 191 1.0 6.0 0.00 0.00 0.00 75 1011.9
20260502031014 58 113 1.0 4.0 0.00 0.00 0.00 75 1011.7
20260502030052 58 110 0.0 7.0 0.00 0.00 0.00 75 1011.7
20260502025024 58 110 1.0 6.0 0.00 0.00 0.00 75 1011.7
20260502024017 58 117 0.0 11.0 0.00 0.00 0.00 74 1011.8
20260502023032 58 109 1.0 4.0 0.00 0.00 0.00 72 1011.9
20260502022018 57 131 0.0 1.0 0.00 0.00 0.00 69 1012.1
20260502021102 57 131 0.0 2.0 0.00 0.00 0.00 68 1012.1
20260502020029 58 109 0.0 4.0 0.00 0.00 0.00 68 1012.1
20260502015042 58 148 0.0 3.0 0.00 0.00 0.00 68 1011.8
20260502014037 58 155 0.0 4.0 0.00 0.00 0.00 67 1012.0
20260502013028 58 142 0.0 2.0 0.00 0.00 0.00 66 1011.8
20260502012013 58 137 0.0 4.0 0.00 0.00 0.00 66 1011.8
20260502011028 58 131 0.0 2.0 0.00 0.00 0.00 65 1011.6
20260502010016 58 114 0.0 2.0 0.00 0.00 0.00 65 1011.5
20260502005055 58 111 1.0 3.0 0.00 0.00 0.00 64 1011.4
20260502004019 58 99 0.0 4.0 0.00 0.00 0.00 63 1011.2
20260502003032 58 126 1.0 4.0 0.00 0.00 0.00 61 1011.1
20260502002028 59 103 0.0 0.0 0.00 0.00 0.00 60 1011.1
20260502001023 59 102 0.0 0.0 0.00 0.00 0.00 58 1011.2
20260502000033 59 101 0.0 3.0 0.00 0.00 0.00 57 1010.9
20260501235055 59 108 0.0 3.0 0.00 0.00 0.00 55 1010.9
20260501234020 60 114 0.0 0.0 0.00 0.00 0.00 55 1010.8
20260501233013 60 114 0.0 0.0 0.00 0.00 0.00 55 1010.9
20260501232028 61 114 0.0 2.0 0.00 0.00 0.00 54 1011.0
20260501231022 62 110 0.0 8.0 0.00 0.00 0.00 53 1011.0
20260501230031 62 131 0.0 6.0 0.00 0.00 0.00 53 1010.9